Location: *
(50.9167°S, 179.4000°W)
Time: 20:48:30
(UTC+00:00)

SeaSat 1 - Pass Details

Date: 03 March 2024
Orbit: 741 x 743 km, 108.0° (Epoch: 16 April)

Event Time Altitude Azimuth Distance (km) Brightness Sun altitude
Exits shadow 14:14:19 17° 237° (WSW) 1,873 4.5 -26.6°
Drops below altitude 10° 14:15:37 10° 228° (SW) 2,292 5.0 -26.5°
Sets 14:18:10 0° 217° (SW) 3,223 5.9 -26.3°
